NOAA-18
1 28654U 05018A 12034.32419292 -.00000076 00000-0 -16942-4 0 601
2 28654 099.0288 351.4167 0014205 171.1731 188.9700 14.11598812345536
NOAA-19
1 33591U 09005A 12034.30188475 .00000311 00000-0 19638-3 0 2483
2 33591 098.8520 335.8525 0014757 044.7515 315.4846 14.11290002153983
HUBBLE
1 20580U 90037B 12033.80363283 .00001564 00000-0 10354-3 0 9369
2 20580 028.4724 309.2623 0003558 058.6018 301.4443 15.02156561994359
ISS
1 25544U 98067A 12034.86863426 -.00001965 00000-0 -18124-4 0 9424
2 25544 051.6423 075.8121 0020339 002.5479 345.5829 15.58658818757067
CO-58
1 28895U 05043F 12033.64256716 .00000361 00000-0 83601-4 0 00904
2 28895 097.9355 265.7268 0016932 214.5420 145.4665 14.60468303333877
FALCON
1 30776U 07006E 12033.97544816 .00003517 00000-0 23574-3 0 02868
2 30776 035.4337 022.0578 0003418 277.9002 082.1323 15.06535208269840
MAST
1 31126U 07012K 12033.93787976 .00000320 00000-0 81602-4 0 03808
2 31126 097.8810 052.9291 0094274 171.6016 188.6795 14.54023074254616
CAPE1
1 31130U 07012P 12033.92706829 .00000389 00000-0 98947-4 0 03883
2 31130 097.8890 049.3986 0101811 183.8149 176.2288 14.52755723254136
COMPASS
1 32787U 08021E 12033.65189263 .00001184 00000-0 15020-3 0 02142
2 32787 097.8195 097.9271 0016162 141.2021 219.0352 14.83468310203713
AAUSAT2
1 32788U 08021F 12033.91859911 .00001254 00000-0 15760-3 0 02077
2 32788 097.8205 098.5001 0016219 140.2606 219.9785 14.83744502203770
DO-64
1 32789U 08021G 12033.88248916 .00003025 00000-0 36122-3 0 02210
2 32789 097.8302 100.0206 0015902 138.7683 221.4734 14.84872170203798
CO-66
1 32791U 08021J 12034.80716732 .00001355 00000-0 17285-3 0 2079
2 32791 097.8205 098.8971 0016484 136.4443 223.8070 14.82984967203820
RS-30
1 32953U 08025A 12034.87439243 .00000010 00000-0 00000 0 0 4891
2 32953 082.5017 018.6546 0017457 240.2754 119.6590 12.43020594167875
TACSAT-3
1 35001U 09028A 12033.80813342 .00076743 00000-0 57634-3 0 08608
2 35001 040.4468 195.8471 0005692 013.5828 346.5199 15.71534632153037
PHARMSAT
1 35002U 09028B 12034.58323606 .00041458 00000-0 42664-3 0 7852
2 35002 040.4653 194.3474 0005185 160.7121 199.3899 15.64020865153120
METEOR-M
1 35865U 09049A 12034.74211401 -.00000013 00000-0 13881-4 0 1227
2 35865 098.6743 091.4739 0003296 081.9944 278.1603 14.21854911123496
RS-38
1 35869U 09049E 12034.71217152 .00000012 00000-0 25016-4 0 1183
2 35869 098.6708 091.4603 0005429 082.7551 277.4235 14.22052782123506
ARISSAT1
1 37772U 98067CK 12004.04884568 .13494171 12416-4 77857-3 0 4794
2 37772 051.6129 213.1240 0007478 255.9283 104.1611 16.41716225 24077
JUGNU
1 37839U 11058B 12033.49104480 .00000620 00000-0 19019-3 0 00806
2 37839 019.9606 100.2643 0018614 166.8909 193.1923 14.12021540016047
SRMSAT
1 37841U 11058D 12033.50275586 .00000264 00000-0 00000-0 0 00819
2 37841 019.9729 102.4062 0012250 143.8899 216.2334 14.10112631016029
RAX-2
1 37853U 11061D 12034.86954635 .00005922 00000-0 48216-3 0 871
2 37853 101.7118 014.0423 0251507 013.4055 347.3665 14.78700145 14533
AUBIESAT
1 37854U 11061E 12034.85490349 .00007030 00000-0 56310-3 0 896
2 37854 101.7132 014.1048 0252526 013.0752 347.6847 14.78974832 14526
HRBE
1 37855U 11061F 12033.97848028 .00006436 00000-0 51605-3 0 01072
2 37855 101.7164 012.8265 0253328 015.5531 345.3267 14.78884214014391
RS-39
1 38051U 11062C 12034.62731332 .00007636 00000-0 34270-3 0 299
2 38051 051.6487 079.8964 0011251 281.2566 189.9078 15.22076105 1465
